Hourly Data Report for June 09, 2019

OTTAWA INTL A
ONTARIO
Current Station Operator: NAVCAN

45°19'00.000" N
75°40'00.000" W
114.90 m
6106001
71628
YOW

Download Data

Hourly Data (June 2019)
Hourly Data Report for June 9, 2019
TIME
LST
Temp Definition
°C
Dew Point Definition
°C
Rel Hum Definition
%
Precip. Amount Definition
mm

Wind Dir Definition
10's deg

Wind Spd Definition
km/h
Visibility Definition
km
Stn Press Definition
kPa
Hmdx Definition


Wind Chill Definition


Weather Definition


00:00 15.6 2.3 41   36 2 24.1 100.99     LegendNANA
01:00 12.2 4.4 58   19 7 24.1 101.02     Clear
02:00 12.3 5.7 63   36 2 24.1 101.03     LegendNANA
03:00 10.6 7.3 80   4 11 24.1 101.05     LegendNANA
04:00 10.5 7.4 81   4 12 24.1 101.07     Clear
05:00 10.8 6.9 76   4 12 24.1 101.13     LegendNANA
06:00 15.0 7.2 60   6 7 24.1 101.16     LegendNANA
07:00 17.3 8.1 54   10 5 24.1 101.16     Mainly Clear
08:00 19.7 9.0 50   8 7 24.1 101.18     LegendNANA
09:00 21.9 8.9 43   18 9 24.1 101.18     LegendNANA
10:00 24.9 8.9 36   15 5 24.1 101.14 26   Mainly Clear
11:00 26.6 8.0 30   14 13 24.1 101.09 27   LegendNANA
12:00 27.9 7.2 26   17 14 24.1 101.04 28   LegendNANA
13:00 28.8 7.0 25   18 10 24.1 100.97 29   Mostly Cloudy
14:00 29.2 4.7 21   11 4 24.1 100.93 28   LegendNANA
15:00 29.2 6.7 24   22 8 24.1 100.87 29   LegendNANA
16:00 29.6 9.2 27   17 13 24.1 100.83 31   Mostly Cloudy
17:00 29.5 10.8 31   16 8 24.1 100.81 31   LegendNANA
18:00 28.6 9.6 30   20 3 24.1 100.77 30   LegendNANA
19:00 26.1 11.2 39   19 6 24.1 100.77 28   Mostly Cloudy
20:00 24.6 11.0 42   18 4 24.1 100.78 26   LegendNANA
21:00 19.8 12.1 61   17 6 24.1 100.78     LegendNANA
22:00 19.9 11.5 58   17 4 24.1 100.76     Mainly Clear
23:00 17.4 11.0 66   15 7 24.1 100.72     LegendNANA

Notes on Data Quality.

Legend

  • E = Estimated
  • M = Missing
  • NA = Not Available*
  • [empty] = Indicates an unobserved value
Date modified: